GW6892 Weather Reports


Display with metric or nautical units.
time (UTC)temp
F
wind
direction
speed
MPH
gust
MPH
rain 1hr
in
rain 24hr
in
rain mn
in
humidity
%
barometer
mb
20260504193020 70 263 2.0 11.0 0.00 0.00 0.00 36 1004.9
20260504191512 70 273 2.0 5.0 0.00 0.00 0.00 35 1005.1
20260504190013 69 98 3.0 7.0 0.00 0.00 0.00 36 1005.2
20260504184517 67 269 3.0 7.0 0.00 0.00 0.00 39 1005.4
20260504183026 66 257 3.0 6.0 0.00 0.00 0.00 42 1005.4
20260504181522 63 295 2.0 6.0 0.00 0.00 0.00 44 1005.7
20260504180013 60 60 1.0 9.0 0.00 0.00 0.00 50 1006.1
20260504174519 60 278 2.0 6.0 0.00 0.00 0.00 46 1006.0
20260504173016 61 279 3.0 10.0 0.00 0.00 0.00 45 1005.9
20260504171526 61 120 1.0 11.0 0.00 0.00 0.00 45 1005.8
20260504081525 37 69 0.0 4.0 0.00 0.00 0.00 83 1008.0
20260504050022 34 245 0.0 1.0 0.00 0.00 0.00 81 1007.9
20260504044534 36 199 0.0 0.0 0.00 0.00 0.00 81 1008.0
20260504043034 36 169 1.0 2.0 0.00 0.00 0.00 76 1008.1
20260504041522 37 191 0.0 1.0 0.00 0.00 0.00 76 1008.0
20260504040022 37 209 0.0 1.0 0.00 0.00 0.00 74 1007.9
20260504034516 37 165 0.0 1.0 0.00 0.00 0.00 75 1007.9
20260504033024 37 217 1.0 2.0 0.00 0.02 0.00 74 1007.9
20260504031526 38 205 0.0 1.0 0.00 0.05 0.00 72 1007.8
20260504030026 39 162 0.0 4.0 0.00 0.09 0.00 72 1007.8
20260504024517 39 219 0.0 1.0 0.00 0.13 0.00 72 1007.8
20260504023022 39 167 0.0 1.0 0.00 0.16 0.00 70 1008.0
20260504021519 39 156 0.0 1.0 0.00 0.18 0.00 70 1007.9
20260504020034 39 229 0.0 4.0 0.00 0.18 0.00 71 1007.8
20260504014535 40 169 2.0 3.0 0.00 0.18 0.00 66 1007.8
20260504013021 40 210 1.0 2.0 0.00 0.18 0.00 68 1007.8
20260504011523 40 167 1.0 4.0 0.00 0.18 0.00 66 1007.6
20260504010022 40 197 0.0 2.0 0.00 0.18 0.00 69 1007.6
20260504004520 41 165 1.0 4.0 0.00 0.18 0.00 63 1007.5
20260504003029 41 139 2.0 3.0 0.00 0.18 0.00 65 1007.3
20260504001523 41 11 0.0 4.0 0.00 0.18 0.00 63 1007.3
20260504000026 42 134 0.0 2.0 0.00 0.18 0.00 62 1007.0
20260503234528 43 181 0.0 3.0 0.00 0.18 0.00 57 1006.8
20260503233026 44 186 0.0 7.0 0.00 0.18 0.00 62 1006.7
20260503231522 45 220 0.0 3.0 0.00 0.18 0.00 54 1006.7
20260503230018 45 188 0.0 5.0 0.00 0.18 0.00 51 1006.6
20260503224521 46 233 0.0 7.0 0.00 0.18 0.00 51 1006.6
20260503223024 47 279 2.0 5.0 0.00 0.18 0.00 48 1006.5
20260503221525 48 216 1.0 5.0 0.00 0.18 0.00 45 1006.3
20260503220024 47 310 1.0 6.0 0.00 0.18 0.00 48 1006.1
20260503214535 46 293 2.0 9.0 0.00 0.18 0.00 47 1006.2
20260503213021 47 320 2.0 9.0 0.00 0.18 0.00 49 1006.4
20260503211524 47 26 2.0 7.0 0.00 0.18 0.00 47 1006.4
20260503210026 48 353 2.0 13.0 0.00 0.18 0.00 43 1006.1
20260503204533 49 89 4.0 11.0 0.00 0.18 0.00 43 1005.9
20260503203022 50 333 1.0 10.0 0.00 0.18 0.00 46 1005.8
20260503201524 51 254 2.0 5.0 0.00 0.18 0.00 44 1005.5
20260503200033 51 283 2.0 7.0 0.00 0.18 0.00 48 1005.7
20260503194526 51 297 2.0 13.0 0.00 0.18 0.00 43 1005.6